Regional Weather Roundup
Issued by NWS

Home | Current Version | Previous Version | Text Only | Print | Product List | Glossary Off
Versions: 1 2 3 4 5 6 7 8 9 10 11 12 13 14 15 16 17 18 19 20 21 22 23 24 25 26 27 28 29 30 31 32 33 34 35 36 37 38 39 40 41 42 43 44 45 46 47 48 49 50

841
ASUS43 KDTX 231610
RWRMI
MICHIGAN HOURLY REGIONAL WEATHER ROUNDUP
NATIONAL WEATHER SERVICE DETROIT/PONTIAC MI
1200 PM EDT MON OCT 23 2017

NOTE: "FAIR" INDICATES FEW OR NO CLOUDS BELOW 12,000 FEET WITH NO
SIGNIFICANT WEATHER AND/OR OBSTRUCTION TO VISIBILITY.

MIZ047>049-052>055-059>063-066>070-074>076-081>083-231700-
SOUTHEAST LOWER MICHIGAN

CITY           SKY/WX    TMP DP  RH WIND       PRES   REMARKS
ADRIAN         LGT RAIN  62  56  80 S7        29.80F
ALMA           HVY RAIN  56  55  96 NE5       29.79F
ANN ARBOR      CLOUDY    64  56  75 SE7       29.80F
BAD AXE        CLOUDY    64  54  69 S9        29.82F
CARO           RAIN      64  53  68 S5        29.80F
DETROIT CITY   LGT RAIN  66  56  70 S12G20    29.82F
DETROIT        CLOUDY    65  55  70 SE9       29.81F
FLINT          LGT RAIN  63  55  75 S6        29.79F
GROSSE ILE     CLOUDY    65  56  75 SE6       29.80F
HILLSDALE      LGT RAIN  59  54  82 SE12      29.77F
HOWELL         DRIZZLE   61  55  83 SE9       29.79F

CITY           SKY/WX    TMP DP  RH WIND       PRES   REMARKS
JACKSON        LGT RAIN  60  56  86 E5        29.76F
LAMBERTVILLE   CLOUDY    69  55  60 S8        29.79F
LANSING        LGT RAIN  59  55  87 E5        29.77F FOG
LAPEER         CLOUDY    64  53  66 SE7       29.81F
MASON          RAIN      60  55  84 SE5       29.77F
MT. CLEMENS    CLOUDY    65  60  83 SE10      29.81F
PONTIAC        LGT RAIN  64  56  75 SE10      29.79F
PORT HOPE        N/A     64  54  69 VRB5      29.81F
PORT HURON     CLOUDY    68  55  64 S8        29.83F
TRI CITIES     LGT RAIN  59  58  96 NE3       29.81F FOG
MIDLAND        LGT RAIN  57  57  98 E9        29.80F
TROY           CLOUDY    67  54  64 SE7       29.82F
SAGINAW HB     RAIN      61  55  82 NW5       29.80F
$$
MIZ043>046-050>051-056>058-064>065-071>073-077>080-231700-
SOUTHWEST LOWER MICHIGAN

CITY           SKY/WX    TMP DP  RH WIND       PRES   REMARKS
BATTLE CREEK   LGT RAIN  60  58  92 CALM      29.75F
BENTON HARBOR  LGT RAIN  54  52  93 VRB6      29.76F FOG
BIG RAPIDS     LGT SNOW  50  48  93 N6        29.80F
COLDWATER      LGT RAIN  60  57  88 SE9       29.74F
FREMONT        RAIN      51  51 100 NE7       29.80F
HOLLAND        LGT RAIN  53  51  93 VRB5      29.78F
GRAND RAPIDS   LGT RAIN  54  54 100 NW7       29.78R
IONIA          RAIN      57  57 100 E5        29.76F
KALAMAZOO      LGT RAIN  59  56  89 N7        29.75F
LUDINGTON      RAIN      50  49  95 CALM      29.80F
MARSHALL       RAIN      59  59  98 SE7       29.74F
MOUNT PLEASANT RAIN      56  54  94 N7        29.80F
MUSKEGON       RAIN      52  51  97 NE8       29.80F FOG
SOUTH HAVEN    LGT RAIN  53  52  95 N7        29.77F
$$
MIZ016>042-231700-
NORTHERN LOWER MICHIGAN

CITY           SKY/WX    TMP DP  RH WIND       PRES   REMARKS
ALPENA         RAIN      52  52 100 N6        29.85F FOG
BEAVER ISLAND  CLOUDY    54  49  85 CALM      29.84F
BELLAIRE       MIX PCPN  50  49  95 CALM      29.85F
CADILLAC       RAIN      48  48  99 NE8       29.80F
CHARLEVOIX     CLOUDY    51  51 100 E8        29.87F
FRANKFORT      CLOUDY    53  53  99 CALM      29.83S
GAYLORD        LGT RAIN  47  46  97 NE6       29.84F FOG
GRAYLING       HVY RAIN  48  46  95 NE6       29.84F
HARBOR SPRINGS RAIN      49  47  94 E5        29.86F
HOUGHTON LAKE  LGT RAIN  49  47  93 NE7       29.83F
MANISTEE       CLOUDY    51  50  96 N3        29.81F
OSCODA         LGT RAIN  55  54  96 NE8       29.84R
PELLSTON       LGT RAIN  50  49  96 SE3       29.87F
ROGERS CITY    RAIN      51  50  95 CALM      29.87F
TRAVERSE CITY  LGT RAIN  52  50  93 E5        29.82F
$$
MIZ007>008-015-231700-
EASTERN UPPER MICHIGAN

CITY           SKY/WX    TMP DP  RH WIND       PRES   REMARKS
KINROSS        CLOUDY    49  48  97 SE5       29.87F
MACKINAC ISLAN CLOUDY    51  51 100 CALM      29.86F
NEWBERRY       CLOUDY    50  49  97 CALM      29.86S
S. S. MARIE    CLOUDY    52  49  89 E3        29.85F
MUNISING         N/A     50  47  89 S8        29.81F
$$
MIZ004>006-011>014-085-231700-
CENTRAL UPPER MICHIGAN

CITY           SKY/WX    TMP DP  RH WIND       PRES   REMARKS
MANISTIQUE     MOSUNNY   46  41  81 CALM      29.84F
ESCANABA       CLOUDY    46  46 100 CALM      29.84F FOG
MENOMINEE      CLOUDY    47  47 100 SE5       29.83F FOG
SAWYER-GWINN   SUNNY     46  43  87 S9        29.81F
$$
MIZ001>003-009>011-084-231700-
WESTERN UPPER MICHIGAN

CITY           SKY/WX    TMP DP  RH WIND       PRES   REMARKS
IRON MOUNTAIN  MOSUNNY   45  41  86 SE6       29.81F
HOUGHTON       SUNNY     55  38  52 S9        29.73F
COPPER HARBOR    N/A     56  43  61 SW9G17    29.74F
IRONWOOD       CLOUDY    52  39  61 S13       29.71F
$$

ABBREVIATIONS USED IN REMARKS
   TC - TEMPERATURE IN CELSIUS
  WCI - WIND CHILL INDEX
   HX - HEAT INDEX
  VSB - VISIBILITY





USA.gov is the U.S. government's official web portal to all federal, state and local government web resources and services.